www.pogodaiklimat.ru

Погода и климат >> Архив погоды >> Китай >> Beijing


АРХИВ ПОГОДЫ в Beijing

Время (UTC), дата Ветер
(напр.,м/с)
 
Видим.   Явления Облачность Т
(С)
Тd
(С)
f
(%)
Тe
(С)
Тes
(С)
Комфортность P
(гПа)
Po
(гПа)
Тmin
(С)
Tmax
(С)
R
(мм)
R24
(мм)
S
(см)
09 18.09 ЮЗ 2 13 км ясно +30.2 +13.1 35 +31 +33 жарко 1002.7 1003.0
12 18.09 З 2 14 км 4/4
[]
+26.9 +7.9 30 +27 +27 жарко 1003.7 1000.0
15 18.09 З 2 13 км ?/? +21.9 +11.3 51 +24 +24 комфорт 1005.3 1005.0
18 18.09 В 2 24 км н/о +22.1 +7.5 39 +23 +23 комфорт 1006.6 1002.9 +31.0
21 18.09 СЗ 1 9000 м н/о +18.3 +7.7 50 +20 +20 тепло 1008.4 1008.0
00 19.09 ЮВ 1 9000 м ясно +25.3 +9.2 36 +26 +29 жарко 1009.6 1005.9
03 19.09 СЗ 3 30 км 3/3
[]
+28.7 +2.8 19 +27 +33 жарко 1010.3 1010.0
06 19.09 С 2 30 км 3/3
[]
+30.1 +0.6 15 +27 +35 жарко 1009.4 1005.7 +16.5
09 19.09 С 1 30 км 3/3
[]
+30.0 -0.4 14 +27 +28 жарко 1009.7 1010.0
12 19.09 С 1 9000 м 3/3
[]
+23.2 +0.3 22 +22 +22 комфорт 1012.1 1008.4
15 19.09 В 1 30 км ?/? +22.8 +0.6 23 +22 +22 комфорт 1013.9 1014.0
18 19.09 В 1 2900 м мгла н/о +15.1 +5.9 54 +16 +16 по сезону 1014.6 1010.8 +30.8
21 19.09 В 2 7000 м н/о +16.1 +3.2 42 +16 +16 по сезону 1014.7 1015.0
00 20.09 СЗ 2 23 км 9/9
[]
+21.0 +4.1 33 +22 +22 комфорт 1016.0 1012.2
03 20.09 В 2 30 км 9/9
[]
+25.5 +4.0 25 +25 +26 комфорт 1015.6 1016.0
06 20.09 З 3 30 км 3/3
[]
+28.3 +5.2 23 +27 +33 жарко 1012.8 1009.0 +14.4
09 20.09 Ю 3 30 км 3/3
[]
+28.0 +5.6 24 +27 +28 жарко 1011.7 1012.0
12 20.09 ЮЗ 2 16 км 3/3
[]
+23.5 +8.0 37 +24 +24 комфорт 1012.1 1008.3
15 20.09 ЮЗ 1 11 км н/о +19.1 +10.1 56 +21 +21 комфорт 1012.3 1012.0
18 20.09 Ю 1 11 км н/о +19.0 +10.3 57 +21 +21 комфорт 1011.2 1007.4 +29.0
21 20.09 СВ 1 8000 м н/о +16.0 +12.7 81 +17 +17 по сезону 1010.7 1011.0
00 21.09 СВ 1 7000 м 9/9
[]
+18.7 +13.8 73 +21 +21 комфорт 1010.7 1006.9
03 21.09 С 1 7000 м мгла 9/9 1000 м
[]
+24.2 +11.9 46 +26 +27 жарко 1009.5 1010.0
06 21.09 ЮЗ 3 6000 м мгла 9/9 1000 м
[]
+27.6 +12.8 40 +29 +30 жарко 1006.7 1003.0 +15.3
09 21.09 Ю 1 6000 м мгла 9/9 1500 м
[]
+27.4 +12.6 40 +29 +29 жарко 1005.6 1006.0
12 21.09 Ю 1 н/о мгла 9/9 1000 м
[]
+24.4 +14.2 53 +27 +27 жарко 1005.2 1001.4
15 21.09 З 1 6000 м мгла н/о +23.5 +13.7 54 +26 +26 жарко 1005.2 1005.0
18 21.09 З 2 15 км н/о +20.4 +13.1 63 +23 +23 комфорт 1006.8 1003.1 +28.1
21 21.09 З 1 11 км ?/? +18.8 +6.2 44 +21 +21 комфорт 1007.1 1007.0
00 22.09 С 4 8000 м 6/6
[]
+22.8 -0.6 21 +22 +22 комфорт 1009.3 1005.6
03 22.09 С 5 26 км 6/6
[]
+24.8 -1.1 18 +23 +25 комфорт 1010.9 1011.0
06 22.09 С 4 30 км ясно +27.4 -2.4 14 +25 +31 комфорт 1009.3 1005.6 +16.8
09 22.09 З 2 26 км ясно +26.8 -0.3 17 +25 +26 комфорт 1009.8 1010.0
12 22.09 штиль 0 9000 м ясно +20.6 +4.6 35 +21 +21 комфорт 1011.1 1007.3
15 22.09 ЮЗ 1 6000 м мгла ?/? +17.6 +5.5 45 +19 +19 тепло 1012.4 1012.0
18 22.09 З 1 8000 м мгла н/о +16.5 +5.8 49 +17 +17 по сезону 1012.3 1008.5 +28.1
21 22.09 В 1 7000 м мгла ?/? +13.8 +7.8 67 +14 +14 прохладно 1012.5 1013.0
00 23.09 В 2 7000 м 9/9
[]
+18.5 +8.8 53 +19 +20 тепло 1013.9 1010.1
03 23.09 ЮВ 1 8000 м 9/9 1500 м
[]
+22.1 +10.3 47 +24 +25 комфорт 1012.9 1013.0
06 23.09 ЮЗ 2 9000 м 9/9
[]
+26.6 +12.3 41 +28 +29 жарко 1010.2 1006.4 +13.4
09 23.09 Ю 1 9000 м 9/9
[]
+27.7 +14.7 45 +30 +30 жарко 1008.5 1009.0
12 23.09 штиль 0 6000 м мгла 9/9
[]
+23.1 +15.9 64 +28 +28 душно 1009.0 1005.2
15 23.09 С 2 6000 м мгла ?/? +21.9 +15.5 67 +26 +26 душно 1008.9 1009.0
18 23.09 СВ 1 6000 м мгла н/о +20.1 +15.1 73 +24 +24 комфорт 1008.5 1004.8 +28.5
21 23.09 В 1 6000 м мгла н/о +19.0 +13.6 71 +21 +21 комфорт 1008.9 1009.0
00 24.09 В 1 н/о 9/9
[]
+21.7 +15.1 66 +25 +25 комфорт 1010.9 1007.1
03 24.09 С 3 11 км 9/9
[]
+26.9 +12.9 42 +29 +29 жарко 1011.3 1011.0
06 24.09 СВ 3 10 км 9/9
[]
+29.1 +14.5 41 +31 +32 жарко 1009.6 1005.9 +18.2
09 24.09 Ю 2 8000 м 9/9
[]
+28.5 +15.8 46 +32 +32 душно 1009.5 1010.0
12 24.09 штиль 0 3600 м мгла 9/9
[]
+22.9 +17.4 71 +28 +28 душно 1011.1 1007.3
15 24.09 В 2 2700 м мгла ?/? +24.3 +19.2 73 +29 +29 душно 1012.1 1012.0
18 24.09 В 2 7000 м мгла н/о +22.1 +14.5 62 +25 +25 комфорт 1012.8 1009.1 +29.2
21 24.09 В 2 16 км н/о +22.0 +13.1 57 +25 +25 комфорт 1012.1 1012.0
00 25.09 СВ 2 12 км 10/10 1500 м
[]
+22.5 +13.6 57 +26 +26 жарко 1012.8 1009.0
03 25.09 В 2 4500 м мгла 9/9
[]
+24.8 +18.3 67 +29 +30 душно 1012.1 1012.0

 

Местоположение метеостанции Beijing (Китай): широта 39.93 долгота 116.28 высота над уровнем моря 55 м.

В архиве по умолчанию представлена погода в Beijing за последнюю неделю. Архивные данные за месяц целиком и за предыдущие месяцы, начиная с января 2011 года, Вы можете получить, выбрав интересующий диапазон дат из раскрывающегося списка и нажав кнопку "Ввод!".

Внимание! Время в таблицах - всемирное. Для получения местного времени необходимо прибавить поправку, которая в Beijing равна 8 ч.

Смотрите также архив погоды в соседних городах и на ближайших метеорологических станциях:

Погода в Huailai (Китай) (84 км)
Погода в Tianjin (Китай) (119 км)
Погода в Baoding (Китай) (135 км)
Погода в Fengning (Китай) (146 км)
Погода в Yu Xian (Китай) (147 км)
Погода в Zhangjiakou (Китай) (152 км)
Погода в Tangshan (Китай) (162 км)
Погода в Chengde (Китай) (183 км)
Погода в Potou (Китай) (207 км)
Погода в Leting (Китай) (231 км)

Пояснения к столбцам:

Ветер - указаны скорость ветра в м/с - средняя за 10 мин, порывы в срок и между сроками (в фигурных скобках) и направление, откуда дует ветер: С - северный, СВ - северо-восточный, В - восточный, ЮВ - юго-восточный, Ю - южный, ЮЗ - юго-западный, З - западный, СЗ - северо-западный.
Видимость - горизонтальная дальность видимости в метрах или километрах. При видимости от 1 до 10 км при отсутствии осадков обычно наблюдается дымка, при ухудшении видимости до 1 км и менее - туман. В сухую погоду видимость может ухудшаться дымом, пылью или мглою.
Явления - указаны атмосферные явления, наблюдавшиеся в срок или в последний час перед сроком; фигурными скобками обозначены явления, наблюдавшиеся между сроками (за 1-3 часа до срока); квадратными скобками обозначены град или гололедные отложения с указанием их диаметра в мм.
Облачность - указаны через наклонную черту общая и нижняя облачность в баллах и высота нижней границы облаков в метрах; квадратными скобками обозначены формы облаков: Ci - перистые, Cs - перисто-слоистые, Cc - перисто-кучевые, Ac - высококучевые, As - высокослоистые, Sc - слоисто-кучевые, Ns - слоисто-дождевые, Cu - кучевые, Cb - кучево-дождевые. Подробнее классификацию облаков см. в Атласе облаков (PDF).
T - Температура воздуха - температура, измеренная на высоте 2 м над землей.
Td - Температура точки росы - температура, при понижении до которой содержащийся в воздухе водяной пар достигнет насыщения.
f - Относительная влажность воздуха - влажноcть воздуха, измеренная на высоте 2 м над землей.
Te - Эффективная температура - температура, которую ощущает одетый по сезону человек в тени. Характеристика душности погоды. При расчете учитывается влияние влажности воздуха и скорости ветра на теплоощущения человека.
Tes - Эффективная температура на солнце - температура, которую ощущает человек, с поправкой на солнечный нагрев. Характеристика знойности погоды. Зависит от высоты солнца над горизонтом, облачности и скорости ветра. Ночью, в пасмурную погоду, а также при ветре 12 м/с и более поправка равна нулю.
P - Атмосферное давление - приведенное к уровню моря атмосферное давление.
Po - Атмосферное давление - измеренное на уровне метеостанции атмосферное давление.
Tmin - Минимальная температура - минимум температуры воздуха на высоте 2 м над землей.
Tmax - Максимальная температура - максимум температуры воздуха на высоте 2 м над землей.
R - Количество осадков - Количество выпавших осадков за период времени, мм. При наведении курсора мыши на число - период времени, за который выпало указанное количество осадков.
R24 - Количество осадков - Количество выпавших осадков за 24 часа, мм.
S - Снежный покров - Высота снежного покрова, см. При наведении курсора мыши на число - состояние снежного покрова и степень покрытия местности в баллах.